Theta_e
325 328 329 330 331 333 341 344 350 349 348 355 354 352 348 351 350 350 349 347 347 346 346 345 346 342 341 342 347 348 350 351 348 351 351 351 351 350 351 342 343 346 349 344
325 327 329 331 332 334 340 342 346 346 349 352 356 353 343 343 348 351 351 349 348 345 346 348 348 347 344 345 347 348 351 352 351 352 345 349 351 351 352 352 351 353 352 352
324 325 329 331 332 334 341 344 344 344 346 349 351 353 350 345 345 343 350 349 348 347 347 349 349 349 347 349 350 352 351 352 353 347 350 352 351 350 351 352 353 350 343 352
323 325 327 327 330 332 333 341 342 345 343 355 348 351 348 346 346 344 349 350 350 347 347 349 349 349 349 342 351 350 353 354 354 352 350 341 349 349 349 347 348 340 349 355
320 326 326 326 327 330 332 334 341 345 345 339 353 347 348 346 345 355 351 351 347 346 347 350 349 349 346 343 347 352 353 355 354 355 347 338 347 345 348 345 348 345 349 348
319 322 325 325 327 328 330 332 332 332 332 335 333 341 343 348 347 353 348 347 345 347 348 349 349 349 347 344 346 345 345 343 355 356 351 348 349 348 349 348 344 349 349 348
316 318 320 322 322 321 325 326 330 334 334 334 334 342 338 343 349 346 343 342 344 345 351 350 349 347 347 346 342 340 342 350 355 355 351 350 348 348 348 345 349 348 343 340
315 317 319 321 322 322 321 323 328 335 335 334 343 344 343 346 344 344 344 344 346 342 349 351 347 346 344 344 344 352 355 356 352 349 345 342 350 351 349 348 348 340 336 334
315 316 318 320 322 322 321 325 324 325 325 329 343 345 339 343 345 346 346 343 348 345 342 348 347 347 345 346 351 358 358 353 351 351 349 350 349 347 343 339 337 335 333 332
315 316 319 319 322 320 321 322 324 319 327 329 330 346 343 345 347 348 345 346 341 345 347 347 347 353 357 357 358 359 357 354 351 350 348 348 345 343 339 336 333 332 331 331
313 314 318 317 318 318 318 322 320 318 321 323 326 326 337 342 343 345 339 340 343 350 349 347 349 358 358 357 358 357 354 352 352 349 347 344 339 336 334 332 331 331 330 328
316 312 315 318 317 319 320 320 320 320 321 320 319 322 340 340 342 342 338 341 343 350 349 350 356 357 356 354 353 352 352 351 350 348 344 339 335 332 331 331 330 329 327 327
318 313 316 316 316 317 322 321 318 316 315 319 320 321 343 340 340 340 342 352 351 352 354 356 355 354 353 351 351 351 350 349 348 345 339 335 332 331 330 329 328 327 326 323
324 312 314 317 316 319 322 320 321 319 317 319 320 328 350 344 341 341 348 356 356 357 357 356 354 352 351 350 349 348 346 346 342 338 335 333 331 330 328 327 326 325 323 318
317 319 318 316 316 320 321 322 320 322 319 322 322 340 348 344 341 340 354 359 359 357 357 356 354 351 349 348 346 346 344 342 340 336 334 331 329 328 327 325 324 321 315 310
324 322 319 321 319 319 321 321 321 320 322 320 323 339 343 343 338 343 355 359 359 358 357 355 353 350 347 346 345 343 342 340 337 331 330 329 327 326 324 322 320 320 318 316
328 328 328 322 320 321 320 322 323 322 321 323 323 321 336 339 340 342 350 358 358 357 357 355 351 348 346 345 343 338 337 334 332 330 329 327 326 324 321 319 319 319 320 319
327 329 326 324 320 324 319 320 322 323 324 328 327 321 336 340 338 339 342 356 357 356 356 352 349 347 345 343 339 337 334 333 331 330 328 326 325 323 320 320 319 318 318 317
324 330 330 330 331 328 331 329 334 331 328 342 342 339 340 338 340 344 341 351 356 354 352 350 348 346 343 339 337 335 333 332 330 329 327 326 324 321 320 319 319 319 319 319
325 330 336 329 331 333 332 336 340 334 334 342 342 346 356 345 347 344 338 344 354 352 351 348 347 345 339 336 335 334 331 330 329 328 327 325 323 320 320 319 320 320 320 320
326 328 330 332 336 331 338 337 339 342 346 341 339 349 346 353 345 345 345 352 350 350 348 347 346 342 337 334 334 331 331 330 330 328 326 325 322 320 320 321 320 321 321 322
334 333 330 332 334 335 335 336 345 340 337 338 341 345 350 345 343 345 353 352 350 348 347 346 344 338 336 335 334 330 330 331 329 326 326 324 322 321 321 320 321 321 322 321
341 337 338 338 340 334 333 337 336 333 335 338 340 340 343 344 342 352 353 351 349 349 348 345 339 336 334 333 334 330 330 329 327 325 326 324 322 322 321 321 321 320 321 321
334 335 336 335 333 333 337 334 333 333 335 335 338 333 337 348 348 350 351 349 348 347 347 340 337 335 332 331 332 331 329 328 325 324 324 323 322 321 320 321 322 322 321 322
330 338 337 336 334 332 337 333 334 334 334 335 335 338 338 340 343 343 340 342 344 345 339 337 336 334 331 330 330 329 328 325 323 323 323 322 321 321 323 321 320 320 321 321
331 330 336 337 333 333 333 333 335 335 334 333 332 335 340 339 336 337 347 344 342 340 338 337 335 333 331 330 329 329 327 325 323 322 321 322 323 323 321 320 318 319 320 320
Wind_Speed
5 0 7 12 7 7 7 6 5 7 9 6 11 7 6 4 7 12 11 9 11 9 11 27 29 33 29 25 31 33 29 26 24 21 15 14 14 12 11 11 14 13 7 9
5 6 12 6 8 5 8 2 7 4 12 6 8 11 5 6 7 14 16 12 13 9 12 13 22 24 35 32 26 28 30 27 26 22 16 13 12 11 10 11 10 10 9 6
8 8 4 7 13 7 6 5 7 9 11 7 11 6 6 6 12 10 4 6 10 13 14 10 20 27 35 27 24 24 29 30 28 21 12 6 2 4 8 7 8 8 6 6
7 8 11 14 12 4 7 18 9 13 6 7 11 5 6 9 10 9 9 2 8 8 15 14 20 25 29 24 24 25 23 28 27 21 17 14 12 8 6 9 12 8 4 3
10 5 9 7 13 3 14 4 15 17 18 4 13 2 7 2 5 11 11 7 9 10 19 18 19 28 29 24 26 26 23 23 25 23 17 18 21 18 14 16 12 6 2 4
10 4 4 9 16 8 12 5 4 4 5 2 6 5 5 6 10 6 7 11 11 11 18 15 23 23 26 26 16 24 27 23 20 18 22 18 20 15 17 18 12 8 8 8
7 10 6 4 8 7 5 6 3 4 4 6 3 4 8 9 6 13 16 15 16 16 15 16 14 13 19 26 18 17 23 21 18 21 20 15 12 10 11 13 10 15 11 9
7 10 4 5 8 9 6 8 6 6 4 6 2 5 6 4 5 6 10 10 10 11 14 16 14 21 20 22 20 18 24 24 25 22 18 16 14 14 14 17 17 16 13 10
6 7 8 5 5 7 11 3 8 7 1 4 2 5 10 3 5 9 9 15 16 13 11 16 14 16 20 20 21 24 26 25 24 21 18 17 18 18 20 19 17 14 11 10
9 8 15 14 2 5 7 4 1 3 3 3 4 5 5 5 12 9 8 11 8 9 13 18 15 16 20 25 28 27 25 23 20 18 18 19 19 17 17 16 14 13 11 9
8 7 13 4 6 9 6 3 4 6 5 6 3 6 8 15 18 11 10 10 9 12 17 17 15 21 23 25 30 28 25 23 22 19 20 20 18 16 14 15 14 12 11 10
14 7 7 16 10 5 6 10 8 6 8 3 6 7 5 20 17 9 9 3 8 16 18 15 16 23 24 25 28 28 24 22 20 18 19 19 18 16 16 16 15 15 16 12
2 1 5 11 7 5 4 5 6 5 4 6 6 6 1 4 6 4 5 9 13 18 16 16 16 16 21 23 26 25 26 24 21 22 20 19 18 18 17 16 16 16 14 15
8 4 6 8 9 4 4 8 5 5 5 5 7 4 4 5 12 6 6 14 17 18 20 18 15 13 22 24 28 28 27 27 27 25 22 19 19 17 16 15 15 13 11 12
4 3 5 7 8 5 3 5 9 4 7 6 10 10 10 15 18 10 9 16 18 18 19 20 18 15 21 22 23 29 28 29 28 25 24 23 21 19 17 14 13 12 12 13
6 4 7 5 8 4 3 5 7 5 5 5 4 7 9 19 10 10 16 21 22 23 20 18 18 17 21 24 24 26 31 29 30 30 28 25 23 20 18 17 17 15 14 12
4 6 8 6 5 7 5 3 4 5 5 4 4 10 7 6 15 17 18 24 21 20 20 20 20 19 24 28 30 31 32 33 33 30 27 24 22 20 17 16 16 15 13 10
2 3 1 5 5 2 9 5 7 7 5 6 6 8 13 16 23 22 18 20 21 21 22 22 19 25 27 27 30 35 36 34 31 28 26 24 22 21 19 17 15 14 13 11
5 5 3 1 1 6 6 4 2 1 3 12 13 13 7 9 4 3 9 11 24 25 21 23 32 31 30 33 35 37 31 31 29 27 26 25 21 21 20 19 15 13 13 11
4 7 5 3 1 5 3 15 16 4 4 19 17 14 5 11 5 6 15 11 16 16 22 25 31 31 31 33 39 36 30 30 28 27 26 24 20 20 19 18 16 14 12 10
5 3 8 6 4 4 12 18 12 7 6 18 18 14 6 6 1 2 16 14 13 22 24 23 18 16 24 31 36 30 31 29 29 26 25 23 20 21 19 16 14 13 10 5
1 2 3 3 4 5 14 7 7 4 7 9 12 10 8 11 8 11 18 22 22 23 31 36 23 19 26 33 34 29 28 29 28 27 26 25 22 20 18 15 13 11 8 5
3 4 3 2 4 3 6 4 5 5 5 7 11 5 5 6 12 16 18 21 21 21 25 32 35 33 30 33 35 29 31 31 29 27 26 25 21 19 17 15 13 11 8 6
3 4 3 3 2 4 6 4 6 6 2 5 9 7 9 7 8 11 17 16 11 11 16 26 28 28 27 29 33 34 35 33 30 28 26 25 22 19 14 13 11 10 10 11
4 1 2 5 7 6 5 5 8 10 3 3 5 6 2 6 1 4 6 8 12 16 26 33 33 30 28 32 34 33 34 32 30 27 26 23 22 19 15 15 15 15 12 13
5 6 4 5 4 4 8 8 9 6 18 5 3 1 3 3 3 3 3 11 15 21 26 23 24 29 28 33 37 36 34 32 30 28 27 25 22 18 17 17 17 18 17 15
Wind_Direction
299 162 242 256 184 198 198 188 179 132 206 143 196 190 302 343 203 188 196 181 192 186 169 184 182 191 190 186 190 189 188 182 180 179 177 201 202 212 220 228 252 256 269 248
345 233 245 258 252 220 217 236 191 288 157 148 179 237 257 263 256 212 193 192 187 147 158 157 163 167 188 192 193 188 192 187 187 189 193 205 214 210 226 249 263 267 264 265
199 241 304 246 270 249 250 218 167 212 162 211 118 306 292 283 224 252 205 187 200 162 167 161 163 177 192 198 189 181 188 193 190 174 176 171 195 210 227 240 250 235 254 273
232 252 252 269 266 181 198 226 233 210 164 197 206 225 228 217 243 246 239 70 214 183 175 171 176 183 184 185 178 178 189 193 189 189 201 211 212 218 202 240 229 215 255 225
238 234 260 266 257 223 252 232 223 207 206 148 204 164 274 183 222 214 202 214 174 183 186 182 183 186 189 169 179 175 176 186 198 193 212 193 211 222 190 233 216 219 258 221
236 244 221 240 265 246 268 290 27 67 138 57 198 145 259 209 205 167 193 185 189 168 187 180 192 183 195 196 200 191 195 191 197 196 206 201 211 204 177 198 198 222 158 138
304 273 275 231 293 308 87 61 333 341 353 225 191 115 229 219 198 162 191 194 182 165 155 171 180 188 199 193 189 175 172 174 184 180 181 183 179 178 188 182 177 163 141 117
195 282 237 244 190 227 265 159 156 203 214 253 135 243 260 260 143 183 233 214 172 159 146 167 176 185 196 188 177 164 163 152 155 159 160 158 161 153 143 154 154 137 122 109
177 263 278 269 254 127 281 230 188 115 67 79 225 292 309 61 296 248 214 194 175 176 152 158 172 189 189 188 174 168 157 152 153 152 149 146 149 147 138 136 135 128 119 115
225 249 263 273 273 291 165 209 274 10 170 280 294 294 237 208 238 240 227 238 161 161 151 158 164 168 159 159 164 165 162 158 158 156 150 149 147 145 142 139 127 123 116 109
171 170 262 31 175 236 324 308 64 122 140 167 194 254 221 201 216 218 219 203 206 159 155 161 148 148 146 151 157 161 162 156 153 151 143 141 138 136 132 125 119 116 105 102
207 170 218 246 233 225 207 230 190 149 259 228 158 261 222 208 209 185 243 261 171 164 153 151 136 140 148 149 154 159 156 148 148 150 145 140 136 133 129 119 117 118 113 119
197 201 234 292 323 357 225 237 200 127 89 198 153 253 298 162 245 209 192 154 146 151 147 143 140 149 153 148 150 154 154 150 154 153 149 143 139 139 129 124 126 126 125 120
4 117 156 216 214 187 301 320 281 150 138 204 218 211 225 216 239 158 171 153 154 157 153 150 150 154 154 153 153 153 151 153 155 153 152 151 148 144 138 134 132 131 128 124
59 264 190 216 205 203 175 293 313 214 221 169 239 192 200 201 214 176 175 159 161 161 159 163 160 157 152 153 154 153 153 157 160 157 153 150 148 148 143 139 134 132 121 115
355 309 336 299 308 53 336 313 300 265 262 250 176 230 209 210 123 166 172 170 176 174 163 162 158 154 155 155 154 150 156 158 160 151 146 148 148 148 145 143 143 141 133 124
30 11 341 279 310 6 336 223 256 271 265 225 286 234 155 159 185 187 182 181 175 170 162 160 159 158 162 159 155 149 154 160 159 155 153 154 154 151 151 151 149 148 148 145
278 40 32 284 31 292 250 225 223 220 282 17 314 296 188 190 204 199 190 170 169 167 165 162 162 161 157 152 150 149 156 160 160 158 156 155 156 156 157 158 160 158 154 156
164 113 310 257 172 278 318 21 315 157 16 22 359 334 241 199 139 200 151 182 172 174 162 159 159 157 149 148 147 147 153 158 159 159 160 161 165 163 167 165 173 174 172 175
313 107 156 354 251 258 300 323 315 227 51 353 350 345 280 137 152 224 173 183 164 153 153 150 151 148 143 142 148 146 150 159 162 165 167 166 172 174 176 175 181 192 202 209
313 320 210 229 233 281 340 320 309 64 311 331 344 328 307 243 335 94 125 109 113 118 113 114 123 128 137 141 147 145 157 165 173 170 169 170 177 180 180 180 192 206 204 217
274 343 303 84 188 301 349 351 68 259 291 313 331 329 298 288 88 99 112 120 122 124 122 129 126 153 158 158 156 152 162 172 173 169 170 177 178 183 183 188 197 219 231 230
18 152 240 203 196 207 275 189 166 195 255 334 334 344 349 33 128 133 131 129 132 142 152 151 151 157 168 166 166 158 168 169 172 168 173 178 180 184 191 198 211 220 237 263
293 187 225 354 195 249 252 313 185 203 188 315 350 59 35 56 105 113 116 130 139 129 150 153 158 158 153 159 162 172 167 170 171 171 171 175 183 185 196 207 223 229 242 255
221 61 198 250 259 287 280 301 320 332 244 280 59 3 107 114 82 109 117 165 167 155 161 164 166 154 152 157 161 167 170 171 175 174 175 179 190 197 213 213 226 233 245 267
194 209 179 243 198 173 254 269 274 294 305 315 130 79 100 178 214 338 209 183 176 163 157 160 151 142 155 155 157 168 173 176 178 177 179 180 189 193 198 218 232 238 251 257